Location: Newark
(48.1500°N, 2.9667°W)
Time: 01:55:53
(UTC+00:00)

A-11 Canister half - Pass Details

Date: 28 January 2020
Orbit: 1524 x 1684 km, 47.3° (Epoch: 21 February)

Event Time Altitude Azimuth Distance (km) Brightness Sun altitude
Rises 19:14:52 0° 262° (W) 4,681 13.1 -21.7°
Reaches altitude 10° 19:17:52 10° 262° (W) 3,709 12.1 -22.2°
Maximum altitude 19:27:16 85° 176° (S) 1,573 8.9 -23.8°
Enters shadow 19:31:28 40° 90° (E) 2,192 9.2 -24.5°
Drops below altitude 10° 19:36:59 10° 89° (E) 3,821 - -25.4°
Sets 19:40:08 0° 89° (E) 4,829 - -25.9°
